Skip Page Navigation
NASA JPL Caltech
NASA Logo - Jet Propulsion Laboratory + View the NASA Portal
+ Center for Near-Earth Object Studies
JPL Home Earth Solar System Stars & Galaxies Technology
JPL Solar System Dynamics
BODIES ORBITS EPHEMERIDES TOOLS PHYSICAL DATA DISCOVERY FAQ SITE MAP
JPL Small-Body Database Browser
Search: [ help ]  
(2017 FN101)
Classification: Apollo [NEO]          SPK-ID: 3772985
Ephemeris | Orbit Diagram | Orbital Elements | Mission Design | Physical Parameters | Close-Approach Data ]

[ hide orbit diagram ]

For accurate long-term ephemerides, please instead use our Horizons system.This orbit viewer was implemented using two-body methods, and hence should not be used for determining accurate long-term trajectories (over several years or decades) or planetary encounter circumstances.


[ revert to old Java-based viewer ]

Orbital Elements at Epoch 2459000.5 (2020-May-31.0) TDB
Reference: JPL 5 (heliocentric ecliptic J2000)
 Element Value Uncertainty (1-sigma)   Units 
e .5050969133687654 0.00056978  
a 1.997565408188492 0.0022826 au
q .9886012862602669 8.4871e-06 au
i 4.671309805004733 0.0036041 deg
node 34.64347352050472 0.004104 deg
peri 181.5186926341762 0.00041781 deg
M 36.147902751491 0.67902 deg
tp 2458896.954663350099
(2020-Feb-17.45466335)
1.7676 TDB
period 1031.216705716819
2.82
1.7676
0.004839
d
yr
n .3491021799823899 0.00059839 deg/d
Q 3.006529530116718 0.0034356 au
  Orbit Determination Parameters
   # obs. used (total)      60  
   data-arc span      18 days  
   first obs. used      2017-03-22  
   last obs. used      2017-04-09  
   planetary ephem.      DE431  
   SB-pert. ephem.      SB431-N16  
   condition code      7  
   norm. resid. RMS      .39918  
   source      ORB  
   producer      Otto Matic  
   solution date      2018-Feb-10 07:08:51  

Additional Information
 Earth MOID = .0154807 au 
 Jupiter MOID = 1.96701 au 
 T_jup = 3.671 
[ show covariance matrix ]

Ephemeris | Orbit Diagram | Orbital Elements | Mission Design | Physical Parameters | Close-Approach Data ]

Physical Parameter Table
Parameter Symbol Value Units Sigma Reference Notes
absolute magnitude H 24.7   n/a MPO438036  

[ show close-approach data ]
Ephemeris | Orbit Diagram | Orbital Elements | Mission Design | Physical Parameters | Close-Approach Data ]
ABOUT SSD CREDITS/AWARDS PRIVACY/COPYRIGHT GLOSSARY LINKS
FirstGov 2020-Sep-24 02:29 UT
(server date/time)  
NASA Home Page
Site Manager:   Ryan S. Park
Webmaster  Alan B. Chamberlin